Location: Cluj-Napoca
(46.7712°N, 23.6236°E)
Time: 14:09:55
(UTC+02:00)

N. Korean satellite - Visible Passes

Search period start: 29 November 2022 00:00
Search period end: 09 December 2022 00:00
Orbit: 421 x 454 km, 97.3° (Epoch: 28 November)

Date Brightness Start Highest point End Pass type
(mag) Time Alt. Az. Time Alt. Az. Time Alt. Az.
29 Nov 7.0 05:37:53 10° NNE 05:41:17 58° E 05:44:38 10° S visible
29 Nov 8.4 07:12:18 10° NW 07:13:19 11° WNW 07:14:21 10° W visible
29 Nov 9.5 17:43:12 10° SW 17:45:41 19° W 17:48:12 10° NW visible
30 Nov 9.2 04:59:52 10° NE 05:02:25 19° E 05:04:56 10° SE visible
30 Nov 7.3 06:31:59 10° N 06:34:57 28° WNW 06:37:55 10° SW visible
01 Dec 6.3 05:52:54 10° NNE 05:56:22 88° W 05:59:45 10° SSW visible
01 Dec 9.8 17:59:10 10° WSW 18:00:49 13° W 18:02:30 10° WNW visible
02 Dec 8.5 05:14:28 10° NE 05:17:30 28° E 05:20:28 10° SSE visible
02 Dec 7.8 06:47:19 10° NNW 06:49:50 19° WNW 06:52:20 10° WSW visible
02 Dec 8.2 17:18:38 10° SSW 17:21:47 37° W 17:24:59 10° NNW visible
03 Dec 10.0 04:38:09 10° E 04:38:23 10° E 04:38:37 10° E visible
03 Dec 6.4 06:07:53 10° N 06:11:15 55° WNW 06:14:33 10° SSW visible
04 Dec 7.6 05:29:07 10° NNE 05:32:24 43° E 05:35:38 10° S visible
04 Dec 8.2 07:02:46 10° NNW 07:04:32 14° WNW 07:06:19 10° W visible
04 Dec 9.0 17:33:50 10° SSW 17:36:39 25° W 17:39:32 10° NW visible
05 Dec 9.5 04:51:15 10° NE 04:53:18 15° E 04:55:19 10° SE visible
05 Dec 6.9 06:22:48 10° N 06:25:57 35° WNW 06:29:04 10° SW visible
06 Dec 6.6 05:43:43 10° NNE 05:47:07 69° ESE 05:50:28 10° S visible
06 Dec 9.6 17:49:08 10° SW 17:51:25 17° W 17:53:44 10° NW visible
07 Dec 8.9 05:05:20 10° NE 05:08:02 22° E 05:10:42 10° SSE visible
07 Dec 7.4 06:37:41 10° NNW 06:40:30 24° WNW 06:43:17 10° SW visible
07 Dec 7.5 17:08:57 10° S 17:12:16 50° W 17:15:36 10° NNW visible
08 Dec 6.2 05:58:16 10° N 06:01:40 75° WNW 06:05:01 10° SSW visible
08 Dec 9.9 18:04:50 10° WSW 18:06:04 12° W 18:07:19 10° WNW visible
